GFSGBSN_700_rhum_189.txt.gz
RH
20 18 20 20 14 5 5 5 5 6 6 6 7 8 7 8 8 7 6 6 6 6 6 7 8 8 9 8 9 10 10 11 11 11 11 11 11 11 10 11 12 13 16 18 19 19 18
10 8 10 13 16 19 13 4 4 5 5 5 6 6 6 6 7 6 6 6 5 5 6 6 6 7 9 9 10 10 9 11 11 11 11 11 11 11 11 10 11 11 13 14 17 17 16
6 7 8 9 11 12 12 17 14 4 4 5 5 5 6 6 6 6 6 5 5 5 6 6 6 5 8 10 9 9 8 10 11 10 10 11 11 12 11 11 11 10 11 12 16 19 19
4 6 7 8 10 12 12 11 12 18 18 6 3 5 5 5 5 5 5 5 5 5 6 7 7 6 6 9 9 8 7 8 10 10 9 10 10 11 12 11 10 10 10 12 18 23 22
3 3 5 8 8 10 10 11 13 11 13 24 20 8 3 4 5 4 4 4 5 5 5 6 8 8 7 8 10 9 9 8 10 10 9 9 9 10 11 11 10 12 14 14 16 24 25
4 2 2 4 7 8 9 9 10 11 10 10 14 32 20 8 3 4 5 5 4 4 4 4 5 5 7 10 10 9 9 8 10 10 8 9 9 10 11 11 15 18 17 18 20 24 21
6 3 3 4 4 6 6 5 5 5 3 4 8 9 14 26 20 12 8 5 5 6 6 6 6 6 7 7 8 9 9 8 11 9 8 9 8 10 11 12 14 17 18 20 18 27 23
32 22 14 10 5 4 4 4 3 2 2 2 1 1 4 10 19 24 23 20 17 14 12 9 9 9 8 8 9 9 9 10 11 9 8 8 7 9 12 14 16 18 19 19 20 27 31
26 26 16 7 3 2 2 2 2 2 2 2 2 1 1 2 7 21 23 22 22 20 16 12 12 11 10 8 8 9 10 12 12 9 9 8 8 9 12 13 19 20 21 26 31 35 29
9 16 19 12 10 8 3 2 2 2 2 1 1 1 1 1 6 11 20 17 17 17 15 10 7 10 9 9 10 10 13 16 12 10 9 8 10 10 13 14 24 21 25 29 37 59 53
8 8 12 22 27 29 24 19 22 16 2 2 1 1 1 2 3 3 18 18 18 20 30 8 13 12 16 18 18 18 20 16 13 12 11 12 9 12 10 18 24 30 30 36 42 50 51
25 26 28 27 24 26 18 18 16 20 22 6 1 1 1 2 2 5 18 30 23 20 20 9 16 20 18 18 23 24 20 18 17 15 12 9 12 12 12 21 23 29 31 36 41 48 84
8 7 12 14 15 17 20 27 28 24 25 22 4 1 1 1 5 10 21 36 46 28 10 20 20 20 19 19 21 23 21 18 17 14 12 12 12 14 16 21 22 38 44 51 59 65 67
9 11 13 15 18 32 33 33 37 35 34 28 33 15 4 5 2 4 23 48 64 22 19 33 28 24 24 23 20 18 16 13 14 15 22 20 15 17 28 21 36 43 58 63 69 82 71
20 21 20 22 23 25 28 34 38 38 36 40 38 36 32 10 5 6 38 100 52 41 34 38 35 29 24 20 19 22 21 20 19 21 24 27 27 26 23 27 43 56 59 67 75 87 94
25 24 23 23 23 19 13 16 21 11 26 42 51 35 44 36 13 15 57 98 74 50 51 51 41 31 43 41 35 38 32 30 30 30 36 36 44 40 32 30 41 45 68 77 83 99 95
24 16 6 2 3 5 7 7 8 12 12 34 36 41 54 34 24 89 97 99 94 70 72 72 65 56 42 42 44 48 46 36 44 45 36 45 53 50 50 45 43 52 74 77 86 85 99
2 2 2 2 5 14 17 70 77 46 62 87 75 58 61 52 70 78 100 99 83 94 88 87 85 83 79 61 55 56 53 50 46 47 42 47 58 66 64 50 50 55 68 70 80 82 94
2 2 3 3 6 18 48 84 94 100 97 99 100 100 80 92 98 100 95 82 99 95 93 88 90 88 93 90 84 70 64 61 61 50 67 73 68 76 65 56 55 61 64 63 66 74 81
3 4 4 3 4 15 67 91 96 96 99 98 100 97 98 100 98 99 93 97 98 91 90 97 87 92 96 95 89 84 70 68 64 64 81 80 80 82 84 70 69 78 81 77 84 96 85
5 5 5 5 5 10 36 79 90 97 92 100 97 96 88 99 96 100 97 91 93 91 92 86 89 88 97 98 96 84 85 83 76 75 73 76 86 87 74 79 84 86 87 80 78 63 99
6 6 7 8 11 15 19 61 90 84 91 89 92 97 99 98 98 94 96 97 92 90 92 81 98 99 97 98 98 98 99 98 83 85 79 92 94 99 96 86 78 76 77 54 53 60 79
5 6 8 12 20 18 19 20 58 90 90 82 84 92 95 95 97 97 96 95 99 96 88 89 94 91 90 96 96 95 91 93 97 100 90 94 95 95 94 87 86 88 45 54 53 51 46
6 6 8 20 35 30 25 24 30 58 82 88 90 76 94 98 94 91 83 88 89 99 97 96 88 82 82 94 92 82 75 64 56 69 78 70 75 92 97 91 77 54 58 59 61 45 40
6 8 18 31 59 56 46 35 34 32 49 84 96 92 80 77 82 92 99 95 96 94 91 90 81 82 80 77 75 58 41 37 36 36 37 38 41 82 87 80 65 59 40 47 57 34 36
6 7 11 52 94 92 77 83 54 40 33 33 43 58 72 73 69 69 67 64 66 65 63 66 70 70 66 72 62 32 36 36 36 48 54 62 59 86 84 94 93 55 46 51 52 44 43
7 10 16 100 93 92 83 80 84 92 70 42 32 28 28 28 30 33 41 55 63 64 63 60 54 51 50 51 48 48 59 42 60 48 41 57 70 98 97 95 82 69 51 61 71 45 51
10 14 35 75 93 93 80 93 95 94 94 96 86 70 61 61 43 42 37 29 30 33 40 50 51 48 55 61 62 60 53 40 49 50 47 48 56 62 88 99 87 61 53 61 59 52 47
18 21 40 60 78 80 72 72 69 74 77 88 82 88 94 96 92 84 73 49 54 65 71 51 51 58 74 74 76 79 85 84 75 80 68 75 44 43 51 55 46 63 73 68 67 61 50

GFSGBSN_700_rhum_195.txt.gz
RH
4 4 5 6 6 6 7 7 7 8 9 10 7 5 4 4 5 5 6 6 6 6 6 6 6 7 8 8 8 9 10 10 10 11 10 9 8 8 8 8 8 8 8 8 9 8 8
4 4 4 4 5 7 7 8 9 10 11 10 8 10 6 5 4 4 5 5 5 5 5 6 6 6 7 6 8 10 10 9 9 11 11 9 8 8 8 8 7 7 8 7 8 7 6
47 40 33 19 6 4 4 5 6 7 8 8 10 11 9 10 5 5 4 4 5 4 5 5 6 6 6 6 6 10 10 9 8 9 10 10 8 8 7 8 8 7 7 6 9 8 7
51 51 53 45 24 12 5 3 3 3 5 6 6 7 10 11 10 10 5 4 4 5 5 5 5 6 7 7 7 7 9 9 8 8 9 10 8 8 8 8 7 7 8 7 7 7 6
44 45 46 45 34 21 8 7 4 3 3 3 4 4 6 8 11 10 12 8 4 5 4 4 5 5 6 8 8 8 8 9 9 9 8 10 9 8 8 8 7 7 7 7 8 7 7
36 35 35 34 33 32 26 18 17 12 9 5 4 4 5 5 5 9 11 10 16 6 5 5 4 4 5 6 8 8 10 10 10 9 9 10 9 8 7 7 7 7 7 7 8 9 6
35 32 31 33 32 29 28 27 25 26 17 15 9 6 4 4 4 3 2 8 11 17 18 10 6 6 6 6 8 11 12 12 8 10 9 10 10 8 7 7 7 8 8 9 8 10 7
32 30 28 25 23 20 18 18 19 20 16 13 12 5 3 3 2 2 2 1 4 17 14 21 23 17 10 7 7 7 8 10 10 11 10 11 10 8 8 8 8 9 9 12 10 9 11
30 28 28 25 23 22 24 21 19 16 17 21 19 12 5 2 2 2 2 2 2 3 10 10 11 12 15 16 15 13 12 13 12 11 12 13 10 8 8 9 9 11 12 14 14 9 8
30 28 25 29 35 34 30 28 27 27 22 19 24 23 24 26 10 4 3 4 6 5 7 9 9 14 12 10 10 10 11 14 14 13 15 13 10 9 10 9 12 12 16 15 14 18 23
30 23 26 39 34 27 24 22 15 19 26 25 23 20 20 24 20 10 4 3 2 4 30 10 15 15 17 19 17 16 16 14 18 18 16 14 12 11 10 12 15 19 17 14 15 16 25
25 25 35 38 24 22 22 17 16 11 12 17 22 25 26 26 18 11 8 10 4 15 34 10 20 25 26 20 26 28 24 22 25 20 15 14 14 12 11 15 19 22 16 14 17 31 61
25 30 37 27 22 21 23 27 26 21 17 19 22 22 29 31 27 11 11 21 32 29 13 26 27 31 25 32 29 37 32 29 25 23 19 18 14 12 17 23 23 20 20 18 42 56 51
28 34 25 26 32 33 32 25 24 26 25 25 24 23 28 34 36 32 12 48 44 29 26 29 38 30 33 32 33 34 34 32 29 25 18 13 16 20 25 28 25 27 26 27 48 68 58
33 27 28 33 30 27 26 23 6 3 19 17 24 30 31 34 35 36 31 56 19 42 32 31 32 29 42 36 34 36 33 27 23 21 19 21 24 27 38 28 26 40 40 48 52 78 96
28 29 33 28 22 11 5 2 4 4 4 12 15 35 17 32 37 47 88 57 50 32 48 57 42 43 52 48 40 36 32 35 34 29 30 30 29 32 33 30 33 34 48 52 64 85 96
30 32 25 5 2 2 2 2 3 3 3 5 10 8 29 50 57 68 100 91 73 68 63 76 64 63 65 56 68 58 50 44 47 48 51 53 46 45 39 38 35 45 57 64 70 73 97
33 26 6 2 3 3 3 3 4 4 8 15 28 42 53 62 80 90 98 84 90 90 78 84 74 74 78 71 67 57 53 54 54 56 56 59 66 58 50 53 54 59 62 63 68 83 92
23 4 3 3 3 3 3 3 4 5 15 45 56 79 66 90 92 99 97 98 98 96 98 95 84 79 73 85 86 75 65 57 54 55 58 54 64 69 65 65 64 67 62 66 71 75 80
4 3 3 3 3 3 3 3 4 7 28 68 80 92 99 100 98 98 98 91 98 96 95 96 96 98 92 96 96 84 85 78 75 79 80 79 78 66 55 56 69 70 70 73 75 80 72
4 3 3 4 4 4 4 4 4 5 38 66 84 92 90 97 99 87 98 98 94 92 95 96 96 95 96 96 88 94 94 90 85 81 92 95 94 86 86 84 82 78 75 70 69 64 88
4 4 4 5 6 6 4 4 5 8 15 41 49 79 90 88 90 91 87 92 100 99 97 96 92 95 95 96 99 100 98 96 89 86 84 83 93 95 94 75 80 74 67 57 47 70 89
4 4 6 7 7 6 4 4 7 9 11 18 42 65 78 85 92 91 92 97 99 99 97 96 96 93 91 91 90 97 98 95 98 92 94 97 97 94 94 77 83 90 48 44 47 57 60
4 6 8 8 6 5 4 5 11 13 13 13 14 33 68 79 77 81 91 90 90 92 96 97 98 99 97 99 96 93 92 89 92 90 95 89 84 84 94 87 94 53 53 53 63 64 58
6 7 8 8 6 6 5 8 24 32 26 20 18 22 48 74 83 86 79 94 100 100 100 92 96 96 97 97 95 83 75 68 53 48 52 70 64 82 78 87 63 44 33 47 49 51 56
7 8 9 8 7 6 6 15 35 40 49 44 36 28 28 39 59 77 84 80 73 75 80 82 84 86 80 73 76 78 69 60 56 35 40 56 58 98 91 97 92 45 68 68 66 49 42
8 9 9 8 7 7 8 21 74 60 68 72 82 75 66 50 35 32 33 41 47 55 61 68 70 70 71 69 67 70 69 61 55 49 48 69 100 100 98 93 77 43 47 52 61 45 61
10 9 9 9 8 8 11 32 72 98 88 79 74 78 74 75 74 63 53 47 42 38 42 42 43 52 54 64 83 79 71 64 62 58 52 46 49 83 96 100 88 42 46 62 58 68 70
10 10 10 10 10 12 21 34 41 88 98 99 90 82 79 80 73 69 64 64 81 81 72 71 80 67 76 86 98 98 99 98 99 92 62 58 46 41 38 34 24 40 41 73 80 74 36

GFSGBSN_700_rhum_198.txt.gz
RH
3 3 3 4 5 6 4 4 5 7 8 10 10 10 9 9 8 5 4 5 5 5 6 6 6 6 6 8 8 8 9 10 10 11 11 9 7 7 7 7 6 6 7 6 7 7 6
14 22 33 36 38 39 26 8 3 4 4 5 5 6 9 10 10 9 7 4 5 5 6 6 6 6 6 7 8 7 10 10 9 10 10 10 8 7 7 7 6 6 6 6 6 5 6
46 46 47 47 46 46 43 35 21 14 7 4 3 3 4 5 6 10 10 10 5 5 5 6 6 5 6 6 7 6 9 10 9 8 9 10 9 8 7 7 7 6 6 6 7 5 6
42 39 35 32 34 36 38 39 37 32 32 23 14 4 3 3 4 5 8 11 11 7 5 5 6 6 6 6 7 7 7 9 9 8 8 10 10 8 7 7 7 6 7 6 7 6 5
36 33 30 28 28 27 28 29 32 32 33 33 32 29 20 7 4 4 4 6 10 11 13 4 5 6 6 6 7 8 8 7 9 9 8 9 10 9 8 8 8 7 7 6 6 6 5
34 33 31 29 28 27 27 25 26 26 26 25 26 28 29 26 20 10 4 3 4 6 10 15 7 5 6 7 8 8 9 8 9 10 10 10 10 10 8 8 11 6 7 6 7 6 6
38 34 30 30 26 23 22 24 26 26 25 22 23 23 24 21 12 4 4 3 3 4 4 10 17 7 8 9 9 9 9 11 10 11 9 10 11 10 9 8 7 6 7 6 7 6 5
40 34 33 27 22 22 22 28 31 30 30 28 26 23 22 21 13 9 3 2 2 6 4 3 7 15 17 10 8 8 10 12 10 8 9 11 11 11 10 8 8 7 6 7 7 8 6
38 37 29 22 22 22 27 29 27 26 26 26 26 27 22 22 22 23 19 6 4 4 5 4 4 7 12 17 19 17 13 11 10 10 10 12 12 11 10 9 8 7 7 8 10 9 6
42 35 27 24 23 23 30 26 24 25 25 24 22 21 25 23 21 19 20 17 5 2 6 8 8 14 11 12 14 13 14 17 17 16 15 14 13 13 10 10 9 8 8 11 12 12 38
41 34 30 27 24 26 27 25 27 27 28 27 24 14 18 22 24 24 20 18 16 4 42 12 14 16 16 23 22 19 18 14 17 18 16 16 13 13 12 12 10 12 13 14 12 13 21
47 37 34 29 25 27 26 27 28 28 29 29 27 19 15 23 30 29 26 13 13 18 38 10 18 23 26 29 22 25 29 24 25 26 22 18 15 16 14 13 13 16 18 15 15 22 71
56 42 37 31 28 27 28 26 24 26 26 27 27 27 24 19 25 30 31 24 22 43 16 30 35 32 33 34 35 36 41 31 31 31 25 21 20 18 17 19 22 22 20 53 59 72 38
69 44 38 33 31 28 27 23 23 26 19 10 25 28 29 29 23 31 36 29 35 22 28 29 30 31 46 44 40 40 40 40 33 29 23 22 29 23 20 23 24 22 23 38 40 36 26
74 46 37 39 32 28 25 22 18 13 11 13 8 23 24 31 30 32 36 48 26 21 27 33 37 33 50 50 42 39 42 43 36 32 27 20 23 31 30 29 26 33 32 30 33 56 68
80 35 44 38 30 28 21 11 8 7 4 8 4 11 20 29 23 38 72 57 41 36 33 36 43 48 50 51 46 44 45 44 40 33 27 29 36 38 44 35 32 33 35 55 56 62 56
93 74 82 30 31 22 11 6 7 6 4 3 3 6 22 18 26 64 99 96 74 62 66 76 70 63 69 58 50 69 52 47 56 54 44 42 35 48 45 37 35 44 48 49 58 60 71
97 84 44 36 22 10 7 6 7 5 4 5 5 12 29 39 54 80 100 100 92 95 94 91 82 73 68 75 79 62 61 53 56 68 69 64 65 54 49 39 39 41 46 59 63 74 94
70 81 85 32 10 6 4 5 5 4 4 5 9 20 46 45 91 98 90 100 96 84 96 97 94 85 78 75 87 78 70 60 61 64 65 60 66 71 64 59 54 60 63 67 69 67 70
96 92 37 7 4 4 4 4 4 4 4 6 9 32 44 77 94 97 91 94 94 90 94 98 98 98 97 99 93 92 84 74 67 65 68 74 78 59 46 57 60 66 68 69 79 74 63
66 48 18 4 4 4 4 6 5 4 4 7 15 31 54 96 96 95 100 95 92 97 93 95 94 85 87 97 96 95 97 96 89 78 81 95 97 89 77 73 72 67 70 63 81 75 77
65 29 9 4 4 6 7 7 6 4 4 6 11 17 32 59 80 85 89 82 83 94 93 95 96 88 100 97 97 96 93 88 84 85 91 93 97 93 90 80 76 89 72 65 61 70 84
40 26 6 4 6 8 9 7 5 4 4 5 9 21 42 49 71 93 94 97 99 95 96 99 98 96 96 96 93 92 91 87 90 92 93 96 98 97 84 86 88 87 54 49 51 78 78
35 6 5 6 8 9 8 6 4 4 4 4 5 7 17 41 62 66 79 87 94 92 94 96 99 100 98 97 96 96 95 94 94 89 92 94 93 98 98 88 79 56 52 54 62 59 63
10 6 6 8 9 10 9 6 5 5 5 6 8 12 16 30 46 61 76 75 83 91 95 95 94 95 97 96 95 90 82 75 65 57 64 75 85 97 92 77 67 57 44 48 44 56 54
7 7 7 9 11 11 8 6 6 6 7 6 11 27 24 24 30 45 67 79 83 78 76 86 89 90 91 89 84 96 74 64 60 49 43 53 68 100 90 87 61 50 72 71 63 67 60
8 7 8 10 10 10 8 8 8 10 10 10 25 36 44 61 47 32 29 32 36 44 57 67 74 75 75 73 88 87 81 71 61 55 54 66 100 99 88 83 67 44 49 75 63 63 65
9 9 9 10 10 10 9 9 11 10 10 18 41 57 66 56 60 58 53 56 54 46 44 41 39 41 43 56 92 87 88 78 70 63 57 57 85 93 97 92 86 56 41 72 65 68 76
10 10 10 10 10 11 10 11 12 15 17 49 61 74 86 83 68 65 55 52 55 58 74 74 70 61 53 59 79 94 99 100 98 83 67 64 56 57 74 61 55 51 67 84 77 65 62

GFSGBSN_700_rhum_204.txt.gz
RH
8 7 11 21 31 27 25 23 23 23 22 20 18 16 18 20 24 25 24 20 9 5 5 9 7 4 5 6 7 7 8 9 10 10 11 12 10 8 8 8 8 8 6 7 7 6 6
42 39 40 36 30 26 24 24 25 22 16 13 12 12 12 12 12 15 16 20 25 21 11 4 8 9 5 5 5 7 7 8 9 10 11 11 11 10 8 8 8 7 6 6 6 6 5
32 33 32 30 28 27 25 27 25 19 16 15 16 14 13 11 10 10 12 16 19 23 27 16 4 6 10 5 5 6 7 8 8 9 11 11 12 11 10 8 8 8 7 6 6 6 5
41 35 32 31 30 29 28 28 23 22 21 21 18 14 12 9 8 11 13 14 15 16 20 26 18 6 6 9 8 5 6 6 7 8 12 10 12 11 11 9 8 9 7 7 8 6 6
50 47 42 36 34 32 31 29 24 28 27 24 17 15 12 11 11 14 16 16 13 15 18 19 21 12 7 11 10 5 5 6 7 8 11 10 10 11 11 10 9 9 9 17 21 12 6
56 53 50 44 39 34 33 27 28 32 28 24 20 19 15 15 15 16 18 19 18 17 18 13 14 14 14 13 11 10 6 7 8 9 11 10 9 11 11 11 11 12 13 20 22 16 8
61 55 54 50 44 37 34 30 31 33 29 26 22 20 16 16 15 17 20 20 18 17 18 18 13 12 10 8 10 11 10 9 11 11 13 12 11 10 10 11 10 19 23 19 22 13 8
64 59 53 52 44 38 36 34 34 37 36 32 26 23 17 16 15 18 19 18 20 18 19 21 19 13 9 6 6 10 16 10 12 14 17 16 13 12 14 22 22 15 10 9 17 11 8
72 66 59 56 49 42 41 40 38 40 39 38 30 25 17 17 16 20 18 20 22 23 22 21 19 13 11 10 8 6 16 24 17 12 16 20 31 19 20 22 23 13 11 24 24 13 7
75 73 72 64 58 51 49 45 42 41 43 44 37 28 19 18 19 20 21 22 24 25 23 22 13 17 18 17 18 16 10 20 24 24 17 15 17 19 25 19 16 20 26 20 17 10 41
84 84 82 78 74 70 66 57 53 50 47 49 45 27 20 18 18 22 22 21 24 25 68 31 17 16 20 22 21 25 27 22 23 27 30 30 24 22 25 19 22 29 25 19 13 14 14
91 88 91 83 82 85 81 76 71 56 49 52 49 26 20 17 20 24 26 24 25 31 73 26 21 26 27 24 23 26 26 26 32 29 29 29 38 33 37 38 33 24 25 18 18 19 53
93 92 97 97 90 90 94 91 82 68 55 57 48 26 20 18 18 24 31 27 33 43 38 42 33 22 22 40 25 28 30 33 42 42 43 45 31 31 30 38 38 27 36 72 91 83 83
98 99 99 99 99 99 99 98 92 79 63 62 40 25 19 16 17 23 33 30 55 41 41 42 34 31 46 37 61 41 39 46 50 43 50 59 61 37 34 39 45 24 47 66 76 87 74
100 100 99 100 100 100 100 99 98 84 65 64 32 22 18 12 11 18 31 45 48 47 47 40 32 53 56 63 49 56 69 74 68 53 52 52 55 46 41 36 56 60 54 40 39 31 52
100 100 100 100 100 100 100 99 98 95 83 51 34 19 18 12 7 10 27 50 62 57 50 41 56 53 48 54 62 66 61 67 70 50 48 56 45 48 45 46 49 51 45 43 33 79 72
100 100 100 100 100 100 100 100 100 100 90 86 30 14 20 17 13 15 26 58 70 83 57 54 71 76 71 74 70 65 61 57 48 44 50 58 49 66 50 49 41 42 48 45 59 58 88
98 100 100 100 100 100 100 100 100 98 98 51 10 12 24 19 24 34 51 60 54 67 62 73 61 68 80 82 86 77 71 66 54 50 69 75 68 60 54 48 52 64 52 48 46 65 58
100 100 100 100 100 100 99 99 99 98 61 7 8 8 13 14 29 62 75 63 50 51 59 98 92 94 91 96 90 78 77 92 69 56 57 67 68 64 57 56 48 47 46 52 56 55 59
100 100 100 100 99 99 99 99 97 72 6 6 6 10 16 18 21 53 95 100 97 64 70 76 87 87 86 79 82 93 84 87 78 76 67 64 64 66 65 60 63 68 62 57 57 68 58
100 99 99 98 98 99 99 98 66 5 5 5 7 12 14 32 31 37 58 85 99 100 96 87 94 90 98 98 95 92 91 97 95 83 80 82 87 76 62 52 60 64 65 69 73 58 74
99 99 98 96 98 98 98 75 33 6 5 7 8 11 15 22 24 50 83 92 85 100 93 94 96 97 95 100 100 99 99 98 95 89 87 92 98 92 88 64 65 70 69 73 75 55 69
99 97 95 97 97 96 77 39 31 16 9 7 8 8 8 12 15 34 61 83 94 95 86 85 96 100 97 99 99 98 98 96 95 89 85 87 92 93 94 81 86 91 81 55 49 57 66
97 97 98 97 95 84 56 32 21 8 7 6 6 6 7 11 13 20 39 54 86 95 90 96 96 100 89 91 93 92 89 82 80 70 77 87 88 95 94 90 93 62 56 55 63 63 63
98 97 97 95 90 55 27 9 9 10 8 7 6 6 5 7 9 24 26 29 46 49 72 83 100 91 89 94 94 91 81 81 61 60 72 78 94 97 94 94 70 51 53 54 56 51 59
95 96 97 74 28 12 26 18 11 11 10 8 6 6 7 8 12 10 16 28 27 71 100 95 67 74 80 89 96 95 77 70 76 63 53 87 98 100 96 96 70 60 59 57 53 62 71
94 92 59 28 49 36 19 12 11 11 11 11 9 8 8 10 10 14 18 24 25 36 55 94 95 68 57 75 94 93 90 81 77 65 62 63 78 95 97 94 79 61 57 54 61 74 80
92 75 89 68 21 20 11 10 11 12 12 11 11 10 9 11 12 24 32 38 38 42 39 70 65 58 54 43 72 74 72 66 63 64 64 63 90 91 93 97 88 68 60 56 56 89 86
94 69 46 31 11 10 15 11 11 12 12 12 10 11 12 17 30 37 44 44 45 47 45 64 62 85 78 89 94 90 79 95 88 86 74 72 65 66 74 90 93 90 94 77 75 72 86

GFSGBSN_700_rhum_207.txt.gz
RH
42 40 23 28 34 29 26 24 25 24 19 17 17 19 15 15 12 10 8 8 9 10 13 16 21 18 6 7 5 5 6 7 8 10 11 12 12 11 9 8 8 9 8 9 8 7 6
39 39 35 34 30 26 27 26 27 24 23 22 22 19 17 16 14 12 10 11 11 10 10 11 14 20 15 7 8 6 5 7 8 8 9 11 12 12 10 9 10 9 7 7 7 6 6
39 36 34 32 30 29 29 29 29 25 27 27 24 19 19 20 19 19 13 12 12 13 11 12 13 15 22 13 11 8 5 5 7 8 8 10 11 12 11 10 9 10 8 7 6 6 6
44 44 42 38 34 32 32 31 31 26 30 28 25 22 22 23 21 21 14 12 13 13 14 14 16 16 17 16 14 8 9 5 6 6 8 10 12 12 12 11 10 10 9 7 7 6 6
55 53 50 48 44 41 37 34 32 28 31 29 28 28 28 26 23 23 16 13 12 13 15 17 16 14 13 16 14 11 7 6 6 7 8 9 12 12 13 12 11 9 8 9 10 14 9
55 55 53 50 48 45 42 37 33 32 34 34 34 32 30 28 24 24 17 15 14 13 15 16 17 16 18 14 12 11 10 9 7 7 9 12 12 11 12 12 11 9 9 9 24 16 10
62 59 57 53 50 47 43 37 35 36 36 38 38 37 36 30 26 26 20 16 15 14 15 17 18 20 19 13 13 11 11 11 10 11 12 14 12 10 10 11 12 18 27 24 20 20 14
68 71 70 65 56 52 48 42 41 41 40 39 40 42 42 37 28 28 18 16 16 16 16 17 20 21 18 15 13 10 8 11 14 12 14 17 16 14 11 12 15 14 13 21 19 16 12
80 78 75 71 69 64 56 52 50 49 47 47 49 46 47 44 33 25 20 17 17 18 18 19 19 14 15 14 13 11 11 9 16 20 13 18 22 22 17 14 22 27 26 14 15 17 20
84 79 80 79 79 75 70 66 67 71 69 64 59 51 51 50 34 26 19 19 19 22 18 22 19 18 16 12 18 16 18 16 13 21 24 18 13 21 35 31 31 31 21 17 19 23 16
87 83 84 86 85 85 84 76 76 80 83 74 69 62 56 56 35 25 22 19 22 21 41 29 20 20 19 15 14 19 19 21 23 22 24 32 27 26 24 26 26 25 22 31 26 20 15
95 96 95 95 95 92 87 83 84 86 95 83 78 72 66 55 45 23 20 21 24 26 38 30 30 23 17 17 22 23 25 25 27 31 29 28 32 33 34 32 37 30 38 38 24 19 39
96 96 88 90 87 91 90 91 85 98 96 89 92 81 74 66 37 23 18 24 24 27 33 37 28 22 26 26 20 19 22 31 36 35 43 39 32 32 35 42 52 51 39 56 81 68 50
100 100 99 95 100 99 100 100 99 100 98 99 98 90 86 70 36 16 15 24 25 35 39 36 34 30 39 47 44 38 38 44 58 52 46 53 42 39 39 40 42 44 38 35 47 95 76
100 92 98 100 100 99 99 100 100 100 99 99 99 99 96 62 36 15 13 22 28 36 33 35 34 42 52 62 45 55 70 73 72 68 45 60 56 50 47 41 62 58 65 42 49 43 48
100 100 99 99 100 100 100 100 100 100 100 100 100 99 95 69 26 14 12 18 34 44 48 49 41 46 46 62 53 64 61 68 64 52 60 61 54 55 53 53 58 62 50 51 46 74 80
100 100 100 100 100 100 100 100 100 100 100 100 100 99 84 50 26 18 16 20 36 48 40 50 44 56 72 76 71 66 61 62 58 47 58 58 59 57 60 44 37 62 57 50 44 60 85
100 99 99 99 99 100 100 100 100 100 99 100 99 97 66 34 30 23 20 22 33 65 59 61 56 65 78 76 85 83 73 76 66 63 66 71 64 76 61 54 50 61 50 47 43 54 62
99 100 100 100 98 99 100 100 100 99 98 99 98 80 36 20 25 22 26 42 44 48 58 61 71 82 86 77 83 78 78 73 76 77 68 74 77 71 65 64 61 61 61 56 52 55 64
99 99 100 100 100 99 100 100 98 99 100 99 73 23 14 12 14 25 35 59 82 66 60 60 62 75 90 84 96 86 90 89 83 81 79 78 71 73 69 68 71 67 60 51 60 62 58
97 100 99 100 99 100 99 98 98 98 99 88 25 17 15 22 19 29 44 49 70 78 85 79 87 92 100 98 95 97 91 90 87 90 85 88 84 75 66 62 71 73 62 64 66 62 65
98 96 99 99 100 98 97 98 98 97 82 29 11 16 14 17 19 28 43 47 65 88 87 91 82 81 99 97 93 92 93 99 96 99 92 88 91 81 80 74 68 69 66 68 63 63 70
95 99 92 98 98 97 98 97 96 83 52 27 13 10 14 18 16 22 22 35 58 73 80 67 79 80 99 97 89 98 95 92 93 94 90 84 83 85 90 80 80 87 72 56 52 50 47
97 94 99 99 97 97 97 96 91 59 50 44 16 13 13 14 13 21 22 39 53 75 83 82 80 75 63 80 85 89 92 87 89 84 84 84 94 99 93 86 93 64 62 57 59 56 64
100 100 99 99 98 95 96 91 50 30 38 12 9 9 8 8 10 14 14 27 46 67 79 92 78 59 73 90 92 85 79 70 57 58 59 75 100 97 94 98 71 56 59 59 57 56 55
96 96 96 96 96 95 72 54 43 9 8 12 8 7 7 10 12 11 13 20 25 32 44 70 70 62 60 75 86 96 77 77 74 74 57 68 94 98 95 95 92 68 65 58 56 62 62
96 96 96 96 94 86 36 12 23 37 12 10 9 9 9 9 11 15 22 21 24 25 46 80 83 82 79 60 80 90 90 79 73 76 64 67 94 88 96 95 80 72 69 63 60 62 59
96 96 96 92 67 28 50 48 34 28 19 20 13 12 12 12 13 16 23 23 27 30 28 44 51 51 46 38 56 71 79 75 75 69 69 69 74 90 89 99 89 80 69 72 70 67 70
95 95 89 75 93 77 66 49 26 51 27 12 13 13 12 13 17 22 28 35 36 32 41 41 48 58 72 73 94 80 80 89 90 78 80 76 72 84 83 90 91 96 92 94 93 99 99

GFSGBSN_700_rhum_213.txt.gz
RH
41 34 35 42 35 34 26 23 25 28 27 26 26 24 24 27 28 25 22 22 20 18 15 13 11 9 9 11 12 11 11 9 6 5 8 9 11 11 12 12 11 9 8 9 10 14 16
43 36 33 33 34 32 28 26 27 29 29 28 28 26 29 30 31 28 24 25 25 23 18 15 12 10 10 11 12 12 11 10 7 5 6 7 8 11 12 13 13 11 9 10 8 8 11
47 38 35 34 34 32 29 28 31 32 32 30 29 29 30 33 36 34 28 29 30 27 19 15 13 12 10 11 11 12 14 14 10 6 5 8 8 10 12 13 13 12 10 10 8 7 8
52 46 41 42 42 42 42 41 40 38 36 32 31 31 31 34 40 38 37 36 34 29 22 16 15 12 11 12 11 12 13 14 14 10 6 6 8 10 12 13 14 12 10 10 8 8 7
54 51 56 55 49 43 43 42 42 41 37 35 35 34 34 39 45 44 42 40 37 32 24 20 16 14 14 14 14 14 14 12 10 8 7 6 8 10 12 14 16 14 12 9 9 8 10
56 51 57 61 64 61 54 50 47 43 38 39 43 42 43 48 51 50 47 44 40 33 25 24 19 17 17 16 16 18 16 12 10 10 9 8 8 10 12 15 16 13 12 11 10 12 14
63 57 58 63 64 62 62 57 52 48 45 47 49 53 56 56 56 53 51 47 39 33 32 28 22 16 14 14 15 17 17 15 14 12 11 10 10 9 12 15 16 17 14 14 15 15 20
68 64 63 70 69 69 68 67 63 60 57 56 59 65 67 64 62 60 56 53 50 44 38 31 23 15 13 13 12 13 13 14 14 13 13 13 11 13 13 14 15 20 24 25 26 24 23
81 70 67 73 75 75 76 75 76 75 74 75 73 71 70 69 67 71 66 61 58 55 42 32 21 15 14 12 13 13 13 14 13 12 12 15 17 16 17 18 14 17 20 18 21 21 22
78 84 81 73 72 75 78 79 82 82 82 82 76 78 75 73 70 74 74 72 69 62 39 28 19 19 16 16 16 15 14 13 14 16 13 16 18 17 22 28 26 20 25 31 34 36 27
74 82 83 88 88 82 81 83 85 88 87 87 83 82 81 79 87 92 83 78 76 57 51 30 26 21 19 17 16 19 16 16 14 15 20 21 22 26 22 19 36 42 36 34 34 34 35
88 86 85 88 87 91 91 90 86 86 88 87 88 82 81 94 96 94 96 91 79 42 34 30 25 25 21 19 22 24 20 16 17 21 22 23 23 26 31 33 33 38 39 37 39 42 48
94 94 96 90 93 92 94 96 94 94 95 92 93 94 87 99 99 98 99 95 51 48 43 34 30 25 22 24 26 31 29 22 22 24 30 31 27 27 29 32 42 51 54 44 49 57 57
100 99 98 99 100 99 99 96 99 99 99 98 96 98 99 100 99 100 99 92 36 51 30 30 29 29 30 29 36 33 27 26 31 38 44 34 34 37 38 38 45 52 60 41 45 71 60
99 98 100 100 98 98 100 100 100 100 100 100 100 99 100 100 100 100 100 87 73 49 40 29 27 28 32 39 42 42 37 41 49 55 46 46 50 52 50 48 47 57 65 57 58 56 61
100 100 100 98 99 98 100 100 100 100 100 100 100 100 100 100 100 100 100 94 72 55 40 28 27 29 38 48 50 47 44 48 56 56 49 54 50 46 47 52 55 55 64 70 63 60 79
100 99 100 99 100 100 100 100 100 100 100 100 100 100 98 100 100 100 98 90 76 68 51 33 32 33 37 50 53 54 49 48 56 56 58 58 58 55 53 44 48 61 72 70 59 56 76
99 96 98 98 99 100 95 100 100 99 100 100 100 99 98 99 99 99 89 85 78 62 36 27 31 31 39 56 67 68 61 55 59 63 62 65 73 69 51 56 60 64 61 66 65 60 70
68 80 96 93 99 100 100 100 100 100 99 99 99 99 99 99 98 97 93 89 72 47 32 36 38 40 41 50 69 76 76 73 69 68 76 73 81 89 70 71 70 70 70 69 74 66 59
23 27 62 88 90 99 86 98 99 100 99 99 98 98 98 98 100 100 100 90 60 41 37 44 52 63 62 59 58 64 71 75 80 78 76 87 83 79 72 67 72 78 75 77 79 80 73
12 14 19 23 27 77 99 95 94 99 99 99 98 97 97 97 99 100 97 96 60 45 47 49 58 62 68 72 65 90 90 94 89 93 95 93 91 82 78 77 78 76 74 73 78 77 84
14 12 12 16 28 81 98 95 97 99 99 99 97 97 97 97 98 96 96 96 64 44 58 61 52 56 68 73 71 85 80 97 98 92 94 95 99 96 88 79 80 75 69 65 59 62 64
12 14 13 12 28 42 62 92 99 100 99 96 98 96 98 96 95 95 95 85 52 62 74 70 69 84 83 84 86 91 93 93 100 98 97 100 99 96 88 79 75 72 53 44 45 47 49
11 11 12 11 22 47 91 99 100 100 99 98 98 96 98 98 94 94 85 80 68 73 88 84 84 96 87 87 86 84 89 91 88 92 97 99 98 99 95 90 96 56 56 61 65 63 64
11 10 8 11 17 32 67 99 99 98 98 98 97 97 96 95 95 94 94 94 62 60 82 77 90 84 80 78 77 72 69 65 47 58 79 94 100 98 89 97 67 51 60 61 62 65 63
10 8 7 11 16 41 96 100 98 97 96 97 96 96 95 94 92 84 84 35 41 48 76 86 83 82 81 79 69 66 53 61 71 78 63 74 98 99 99 96 92 72 75 77 76 68 65
7 8 12 33 52 98 100 97 96 97 97 97 96 94 93 94 90 66 35 28 36 44 54 67 81 86 81 66 65 65 57 60 54 78 77 77 94 100 99 92 80 73 67 75 71 79 78
55 76 88 99 99 99 96 96 98 98 95 93 94 94 65 32 29 21 23 35 32 41 54 40 46 63 67 77 71 65 69 67 63 69 87 74 75 98 100 96 91 79 76 73 76 85 84
100 100 98 97 96 96 97 96 96 95 94 53 24 31 21 25 30 31 55 45 18 24 29 36 40 27 63 58 51 47 56 76 68 73 71 80 83 90 91 87 79 81 86 84 86 89 89

GFSGBSN_700_rhum_216.txt.gz
RH
34 38 29 26 32 31 27 23 20 23 24 24 26 25 22 23 29 32 30 26 25 26 27 23 17 14 12 10 10 11 11 11 11 9 6 6 9 11 11 12 13 12 10 9 11 14 17
36 42 33 30 30 31 28 25 24 25 27 29 30 27 24 25 30 36 35 34 32 31 29 25 19 17 13 11 11 10 11 11 11 9 6 6 7 9 12 13 14 14 12 10 9 10 10
34 44 39 35 33 29 26 25 27 31 34 35 33 29 28 30 32 39 39 39 37 35 33 29 22 21 15 12 11 10 10 12 14 13 9 6 6 8 10 12 13 14 13 11 10 9 9
40 42 45 38 44 45 44 42 40 40 39 38 34 31 31 32 35 42 42 41 40 38 36 29 26 23 17 16 13 12 12 12 12 14 14 9 6 7 10 12 14 14 13 11 9 8 9
58 49 52 46 44 49 51 50 49 47 44 40 36 36 36 37 40 46 46 44 41 37 36 32 29 25 20 18 15 14 15 15 14 12 9 8 7 6 9 12 15 15 14 12 10 9 9
63 58 55 53 56 58 56 53 53 51 48 44 40 40 41 45 48 51 51 47 44 40 36 34 30 30 24 18 12 12 15 17 13 12 11 10 9 7 8 12 16 16 15 14 12 13 11
69 65 60 55 55 61 64 64 62 58 55 52 51 53 57 57 58 56 57 51 47 43 42 39 37 35 26 13 11 11 12 16 16 15 14 13 12 9 12 14 18 18 19 16 15 18 16
68 73 69 63 57 57 64 65 67 68 68 67 68 68 68 66 64 65 61 58 58 60 50 44 39 36 20 13 12 12 12 12 13 14 14 14 13 12 12 14 16 18 19 22 25 25 26
64 70 77 75 65 62 69 70 72 72 73 75 76 78 78 76 74 70 66 65 68 62 56 44 39 30 16 14 12 13 13 13 13 14 13 13 15 15 14 17 18 16 17 19 22 22 20
65 67 71 76 81 76 69 71 72 74 76 78 81 84 85 86 81 82 82 80 75 73 51 40 30 22 20 16 16 15 15 15 14 14 15 14 15 16 19 24 27 24 21 21 29 40 35
74 70 72 73 77 82 84 84 77 74 81 83 85 88 80 86 88 88 92 87 84 75 64 41 31 26 24 20 17 19 19 18 17 15 15 19 20 21 24 22 23 37 36 35 39 42 40
80 79 79 82 81 81 83 85 87 89 89 88 89 88 87 87 95 98 96 96 99 64 45 39 33 28 25 21 19 20 20 21 21 18 18 19 19 21 24 32 35 32 36 37 40 45 58
99 93 88 89 93 93 95 91 93 91 88 95 98 98 94 98 99 99 100 99 93 70 58 45 37 32 27 22 23 24 26 26 25 24 22 24 24 23 26 32 44 49 51 43 53 62 63
95 98 100 100 100 99 99 100 100 100 100 99 98 99 100 100 100 100 100 100 95 81 65 50 39 34 31 29 29 27 31 27 26 28 29 27 31 33 37 36 42 49 56 44 49 63 58
91 80 86 100 99 100 100 98 100 99 100 100 99 99 100 100 100 100 100 100 94 88 75 65 50 38 35 30 29 32 33 33 38 36 39 39 41 46 46 48 48 56 65 54 57 63 69
99 100 98 97 100 100 100 100 100 100 100 100 100 100 100 100 100 100 100 99 98 97 87 78 60 45 32 29 32 35 34 35 40 47 54 50 46 46 49 55 57 56 58 68 64 68 79
94 99 97 95 100 100 100 99 100 100 100 100 100 100 98 100 100 99 99 98 99 94 93 88 64 45 39 34 39 41 42 38 47 53 53 52 51 54 58 51 48 65 75 66 60 61 76
55 42 67 95 98 100 100 100 100 100 99 100 100 100 99 99 99 99 99 99 97 93 94 87 68 51 42 40 45 53 49 44 52 55 60 56 77 65 52 53 59 60 61 63 65 67 70
16 18 28 42 85 98 100 100 100 99 99 100 100 100 99 98 98 97 96 97 100 98 96 90 70 51 44 44 55 63 67 60 63 64 65 67 81 88 75 72 72 76 67 72 76 76 72
14 16 18 23 30 58 84 100 99 100 97 100 100 99 99 98 96 97 100 98 99 98 97 95 94 66 56 54 58 63 77 80 81 78 78 84 83 77 67 64 73 75 78 80 84 85 79
12 14 15 14 14 17 23 59 100 97 100 99 99 98 98 98 90 96 98 98 97 97 96 96 97 90 74 80 71 76 80 75 78 85 89 93 97 88 89 84 84 83 77 78 82 81 85
14 13 13 15 14 13 11 13 23 56 100 100 99 99 99 98 97 99 97 96 97 99 95 95 95 94 87 96 95 76 70 80 92 97 100 99 98 92 90 77 86 88 80 80 72 69 70
14 14 12 12 12 14 13 11 34 80 95 94 99 99 99 96 94 98 95 95 97 96 96 96 94 95 89 90 97 98 93 92 91 96 100 96 98 97 93 85 81 78 66 60 61 60 59
13 14 13 12 12 12 13 11 32 78 98 81 99 99 98 96 97 95 96 96 98 95 95 96 97 96 94 96 95 93 90 90 94 87 96 98 100 98 95 94 94 60 60 60 62 70 69
9 10 14 14 14 13 10 11 25 97 97 99 99 98 97 98 100 94 92 92 90 94 95 94 95 96 96 94 94 86 72 62 47 61 84 88 100 97 92 96 71 54 56 64 68 70 68
9 9 13 14 12 13 9 9 23 66 100 99 97 96 96 96 96 96 96 95 94 94 96 94 94 94 95 96 92 83 46 47 56 69 57 75 97 100 100 95 91 74 71 77 78 75 70
9 9 9 9 10 9 11 38 64 100 100 100 96 97 96 96 97 96 95 94 91 95 91 94 95 96 94 95 97 81 55 46 50 70 73 77 98 98 100 93 79 71 68 83 80 75 74
6 7 9 12 14 15 52 70 100 99 97 96 96 96 96 96 96 95 91 89 74 61 65 72 88 97 90 95 83 67 59 60 57 60 79 68 75 100 100 94 91 81 84 81 82 83 78
10 31 34 59 68 92 100 98 98 98 97 97 97 96 96 97 83 55 38 40 63 85 85 71 58 42 59 74 72 67 59 71 61 60 65 85 83 94 86 88 83 82 84 84 83 85 86